Total_Precipitation_Accumulation
0.73 0.72 0.76 0.78 0.81 0.86 0.92 0.94 0.98 1.03 1.09 1.08 1.05 0.99 0.88 0.79 0.75 0.77 0.82 0.91 0.91 0.88 0.91 0.90 0.89 0.91 0.96 0.97 0.98 1.02 1.20 1.35 1.26 1.22 1.10 0.95 0.82 0.71 0.57 0.49 0.41 0.33 0.27
0.71 0.71 0.74 0.77 0.76 0.75 0.77 0.76 0.78 0.81 0.84 0.84 0.85 0.88 0.90 0.86 0.78 0.75 0.74 0.75 0.79 0.81 0.85 0.90 0.91 0.96 0.97 0.89 0.91 0.98 1.15 1.33 1.39 1.49 1.55 1.29 1.01 0.80 0.71 0.57 0.38 0.27 0.26
0.66 0.70 0.76 0.74 0.71 0.73 0.75 0.75 0.74 0.72 0.73 0.72 0.72 0.73 0.75 0.83 0.91 0.89 0.84 0.85 0.90 0.83 0.87 0.93 0.91 0.89 0.87 0.83 0.87 0.96 1.06 1.19 1.31 1.37 1.49 1.30 1.10 0.86 0.83 0.67 0.49 0.42 0.27
0.57 0.71 0.82 0.87 0.86 0.85 0.80 0.79 0.77 0.73 0.73 0.71 0.67 0.67 0.69 0.69 0.76 0.87 0.90 0.87 0.83 0.79 0.79 0.79 0.75 0.74 0.74 0.73 0.74 0.83 0.91 0.97 1.05 1.10 1.20 1.24 1.25 1.19 1.11 0.94 0.79 0.66 0.52
0.56 0.77 0.87 0.84 0.77 0.75 0.73 0.79 0.75 0.67 0.67 0.68 0.61 0.59 0.63 0.67 0.66 0.66 0.73 0.76 0.72 0.68 0.70 0.64 0.55 0.57 0.60 0.56 0.57 0.68 0.76 0.84 0.90 0.96 1.09 1.21 1.29 1.32 1.23 1.16 1.01 0.91 0.77
0.50 0.62 0.65 0.68 0.69 0.64 0.59 0.56 0.55 0.57 0.56 0.56 0.51 0.50 0.50 0.49 0.54 0.49 0.48 0.54 0.53 0.50 0.53 0.55 0.49 0.45 0.44 0.45 0.43 0.46 0.52 0.59 0.72 0.89 1.03 1.21 1.26 1.20 1.28 1.24 1.17 1.09 1.03
0.42 0.46 0.52 0.61 0.63 0.55 0.47 0.48 0.51 0.49 0.47 0.45 0.43 0.40 0.38 0.37 0.34 0.32 0.32 0.38 0.40 0.38 0.37 0.40 0.39 0.38 0.35 0.31 0.36 0.41 0.42 0.43 0.45 0.64 0.81 0.87 0.87 0.83 1.00 1.18 1.14 1.12 1.19
0.41 0.47 0.50 0.59 0.60 0.53 0.50 0.48 0.46 0.44 0.43 0.42 0.39 0.37 0.36 0.36 0.33 0.28 0.25 0.23 0.28 0.30 0.29 0.29 0.30 0.34 0.33 0.29 0.29 0.34 0.32 0.31 0.32 0.35 0.38 0.38 0.41 0.48 0.63 0.90 1.09 1.07 1.14
0.40 0.49 0.57 0.62 0.59 0.54 0.51 0.47 0.44 0.43 0.38 0.37 0.38 0.38 0.36 0.34 0.29 0.26 0.25 0.26 0.25 0.23 0.21 0.22 0.23 0.26 0.31 0.29 0.27 0.29 0.26 0.25 0.26 0.25 0.23 0.25 0.27 0.27 0.32 0.48 0.71 0.99 1.27
0.48 0.54 0.59 0.60 0.61 0.58 0.56 0.52 0.47 0.47 0.42 0.37 0.38 0.39 0.36 0.35 0.28 0.21 0.19 0.24 0.29 0.26 0.23 0.19 0.19 0.19 0.21 0.19 0.19 0.21 0.20 0.18 0.17 0.20 0.21 0.19 0.21 0.21 0.18 0.25 0.37 0.60 0.91
0.50 0.57 0.64 0.68 0.63 0.60 0.60 0.59 0.57 0.54 0.54 0.47 0.40 0.39 0.38 0.36 0.29 0.20 0.17 0.22 0.28 0.30 0.26 0.20 0.17 0.15 0.13 0.12 0.12 0.12 0.13 0.12 0.12 0.14 0.17 0.17 0.16 0.16 0.13 0.13 0.17 0.27 0.42
0.54 0.62 0.71 0.75 0.61 0.55 0.64 0.65 0.64 0.65 0.65 0.61 0.54 0.46 0.42 0.41 0.31 0.21 0.18 0.20 0.24 0.28 0.28 0.21 0.14 0.12 0.10 0.09 0.09 0.09 0.08 0.08 0.10 0.12 0.13 0.13 0.12 0.11 0.10 0.08 0.10 0.14 0.22
0.61 0.70 0.72 0.73 0.76 0.75 0.70 0.70 0.70 0.69 0.71 0.69 0.68 0.62 0.54 0.49 0.44 0.32 0.24 0.22 0.23 0.26 0.25 0.23 0.15 0.09 0.08 0.08 0.07 0.06 0.05 0.05 0.07 0.08 0.09 0.09 0.08 0.06 0.06 0.07 0.08 0.09 0.12
0.70 0.74 0.78 0.80 0.81 0.83 0.85 0.83 0.79 0.75 0.77 0.78 0.73 0.70 0.65 0.60 0.54 0.44 0.36 0.29 0.26 0.24 0.23 0.19 0.14 0.08 0.06 0.06 0.06 0.05 0.04 0.04 0.05 0.05 0.06 0.07 0.06 0.05 0.05 0.05 0.07 0.09 0.11
0.78 0.81 0.84 0.85 0.87 0.88 0.88 0.87 0.84 0.80 0.74 0.77 0.76 0.70 0.68 0.65 0.58 0.51 0.45 0.37 0.30 0.25 0.20 0.17 0.13 0.09 0.06 0.06 0.05 0.04 0.04 0.04 0.04 0.04 0.04 0.05 0.06 0.06 0.06 0.05 0.06 0.08 0.12
0.86 0.81 0.79 0.78 0.79 0.82 0.81 0.70 0.59 0.57 0.54 0.52 0.54 0.55 0.55 0.50 0.44 0.43 0.44 0.39 0.34 0.27 0.21 0.19 0.17 0.11 0.07 0.06 0.04 0.04 0.04 0.04 0.04 0.04 0.05 0.05 0.05 0.06 0.06 0.05 0.05 0.07 0.09
0.82 0.79 0.73 0.68 0.67 0.68 0.72 0.71 0.64 0.57 0.56 0.51 0.41 0.38 0.42 0.38 0.34 0.34 0.38 0.37 0.31 0.25 0.21 0.20 0.19 0.13 0.08 0.06 0.04 0.03 0.04 0.04 0.04 0.05 0.06 0.07 0.07 0.07 0.07 0.06 0.06 0.07 0.09
0.78 0.70 0.66 0.64 0.63 0.61 0.62 0.64 0.63 0.66 0.68 0.60 0.48 0.41 0.38 0.31 0.27 0.27 0.32 0.33 0.27 0.21 0.19 0.19 0.18 0.14 0.10 0.07 0.05 0.03 0.03 0.03 0.03 0.04 0.06 0.06 0.06 0.07 0.08 0.08 0.06 0.06 0.08
0.84 0.72 0.65 0.58 0.58 0.61 0.61 0.61 0.61 0.65 0.70 0.69 0.58 0.51 0.44 0.31 0.26 0.25 0.26 0.23 0.17 0.14 0.13 0.12 0.11 0.09 0.07 0.07 0.06 0.05 0.04 0.04 0.04 0.03 0.04 0.06 0.06 0.08 0.09 0.11 0.10 0.09 0.08
0.84 0.73 0.66 0.58 0.55 0.60 0.65 0.62 0.60 0.65 0.68 0.67 0.61 0.50 0.38 0.29 0.24 0.22 0.21 0.16 0.11 0.09 0.08 0.07 0.06 0.04 0.04 0.04 0.05 0.04 0.04 0.04 0.04 0.04 0.04 0.05 0.06 0.08 0.10 0.11 0.12 0.12 0.11
0.80 0.73 0.63 0.54 0.51 0.52 0.58 0.60 0.57 0.60 0.63 0.60 0.53 0.43 0.28 0.20 0.17 0.14 0.13 0.10 0.07 0.06 0.05 0.04 0.04 0.02 0.02 0.02 0.02 0.03 0.03 0.03 0.03 0.03 0.03 0.04 0.05 0.06 0.06 0.08 0.09 0.10 0.11
0.78 0.75 0.67 0.57 0.52 0.52 0.53 0.55 0.57 0.56 0.56 0.56 0.47 0.34 0.24 0.20 0.15 0.11 0.08 0.06 0.04 0.03 0.03 0.04 0.03 0.01 0.00 0.00 0.01 0.02 0.02 0.02 0.02 0.03 0.03 0.03 0.04 0.05 0.06 0.06 0.07 0.08 0.08
0.76 0.74 0.68 0.58 0.52 0.52 0.50 0.53 0.55 0.52 0.47 0.47 0.38 0.27 0.19 0.18 0.13 0.08 0.06 0.04 0.03 0.02 0.03 0.04 0.02 0.01 0.00 0.00 0.00 0.00 0.00 0.00 0.00 0.00 0.01 0.01 0.02 0.03 0.04 0.05 0.06 0.07 0.08
0.73 0.72 0.66 0.58 0.52 0.50 0.49 0.50 0.48 0.42 0.36 0.34 0.30 0.21 0.17 0.15 0.09 0.07 0.04 0.03 0.02 0.02 0.02 0.02 0.02 0.01 0.00 0.00 0.00 0.00 0.00 0.00 0.00 0.00 0.00 0.01 0.01 0.02 0.02 0.04 0.04 0.05 0.06
0.69 0.69 0.66 0.59 0.52 0.46 0.43 0.43 0.41 0.34 0.28 0.25 0.23 0.19 0.15 0.11 0.08 0.05 0.03 0.03 0.03 0.02 0.01 0.01 0.01 0.01 0.00 0.00 0.01 0.01 0.00 0.00 0.00 0.00 0.00 0.01 0.01 0.02 0.02 0.03 0.04 0.04 0.05
0.63 0.62 0.60 0.56 0.48 0.41 0.38 0.38 0.35 0.28 0.21 0.19 0.19 0.16 0.12 0.09 0.07 0.04 0.02 0.03 0.03 0.03 0.02 0.02 0.02 0.01 0.01 0.01 0.02 0.01 0.01 0.01 0.01 0.01 0.01 0.01 0.02 0.02 0.03 0.03 0.02 0.03 0.03